Dewpoint
39 39 39 39 39 38 37 36 36 34 33 30 30 29 29 28 28 28 28 28 27 27 28 28 27 27 27 26 26 25 25 25 25 25 26 27 26 26 26 26 27 27 27 27 27 27 27 27 27 27 26 27 27 27 28 29 29 28 28 28 28 28 27 27 28 27 27 27 27
39 39 39 40 39 38 36 35 34 33 32 30 30 30 29 29 28 28 28 28 28 28 28 28 27 27 26 25 25 25 25 25 24 25 25 25 25 25 26 26 26 26 26 27 27 27 27 26 26 26 26 26 26 26 26 27 28 28 27 27 28 27 27 27 27 27 27 27 27
39 39 39 38 37 35 34 33 32 31 30 30 30 30 29 29 29 28 28 28 28 28 27 27 28 27 26 26 26 25 25 25 24 24 24 24 24 24 24 25 25 26 27 27 26 26 26 26 26 26 26 25 25 25 25 25 26 26 26 26 26 26 26 26 26 26 26 26 25
39 39 38 36 34 33 32 32 30 30 29 29 30 30 30 29 29 29 28 28 28 27 27 26 27 28 28 27 27 26 26 26 26 25 25 24 24 24 24 24 25 25 25 25 25 25 25 25 25 25 25 24 24 24 24 24 25 25 25 25 25 25 25 25 25 25 25 25 25
39 38 37 35 34 33 32 31 30 29 29 29 29 29 29 29 29 29 28 28 27 27 27 27 27 28 29 29 28 27 26 26 28 27 25 25 24 24 24 24 24 24 25 25 25 25 25 25 25 24 24 24 24 24 24 24 24 24 24 24 25 25 25 25 25 25 25 25 25
39 38 36 34 33 32 32 31 30 29 29 29 29 29 29 29 28 28 27 27 27 27 27 28 29 30 30 29 28 27 26 25 26 25 25 24 25 24 24 24 24 24 25 25 24 24 24 24 24 24 23 23 24 24 24 24 23 24 24 24 24 24 24 25 25 25 25 25 25
38 37 36 34 33 32 31 30 30 29 29 29 28 28 28 28 27 27 27 26 26 26 26 28 29 29 28 28 27 26 25 25 25 24 24 25 24 24 24 24 23 23 23 23 23 24 24 23 23 23 23 24 23 23 23 23 23 23 23 23 23 23 23 24 24 24 25 25 25
38 36 35 34 32 31 30 30 29 29 28 28 28 27 27 27 27 26 26 26 25 25 26 27 27 27 27 26 26 25 25 25 25 25 25 25 25 24 24 23 23 23 23 23 23 24 24 24 24 23 23 23 22 22 22 23 23 23 23 23 23 23 23 24 24 24 24 25 25
37 36 34 33 32 30 30 29 28 28 28 28 27 27 27 27 27 27 26 25 25 26 26 26 26 26 26 26 25 25 26 26 26 26 26 26 25 25 25 25 24 24 24 24 24 24 24 24 24 24 24 23 23 23 23 23 23 23 23 23 23 23 23 24 24 24 24 25 25
36 35 34 32 32 31 30 29 28 28 27 27 27 27 28 29 28 27 26 26 26 26 25 25 25 25 25 25 25 25 25 25 26 25 26 26 26 26 25 25 25 25 25 25 24 24 24 25 25 24 24 24 24 24 24 23 23 23 23 24 24 24 24 24 24 24 24 24 25
35 34 33 32 31 31 30 29 29 28 27 27 27 27 28 29 28 26 25 26 25 25 24 24 24 23 23 24 24 25 25 25 25 25 25 25 26 26 25 25 25 25 25 25 25 25 25 25 25 24 24 24 24 24 24 23 23 23 23 24 24 24 23 24 23 23 23 23 23
34 33 32 32 31 30 30 29 29 28 28 27 27 27 27 27 26 26 25 25 25 24 24 24 24 23 23 23 24 24 25 25 25 25 25 25 25 25 25 25 25 25 24 25 24 24 24 24 23 23 23 23 23 23 23 23 22 23 23 23 23 23 23 23 23 23 23 23 23
34 33 32 31 30 30 29 28 28 27 27 27 27 27 27 27 26 26 25 24 24 24 23 24 24 24 23 23 23 23 24 24 24 24 24 24 24 24 24 24 24 23 23 23 23 22 22 22 22 22 22 22 22 22 22 21 21 21 22 22 22 22 21 21 22 22 22 22 23
33 32 31 31 30 30 29 28 27 27 27 27 27 27 27 26 26 26 25 24 23 23 23 23 24 24 24 23 23 22 22 22 23 23 23 24 24 23 23 23 22 22 21 21 21 21 21 21 21 21 21 21 21 21 21 21 20 21 21 21 21 21 21 21 21 21 22 22 22
32 32 31 31 30 30 29 28 28 27 27 26 27 27 26 25 26 26 25 23 23 23 23 22 23 23 23 23 22 21 21 21 21 21 21 22 22 22 22 21 21 21 21 21 20 20 20 20 19 19 19 20 20 20 20 20 20 20 20 20 20 20 20 21 21 21 21 21 22
31 31 31 30 30 30 29 28 27 27 26 26 26 26 25 25 25 25 25 23 23 23 22 22 22 21 22 23 22 21 21 21 20 20 20 20 21 21 21 21 20 20 20 19 19 19 19 19 19 19 19 20 20 20 20 21 20 20 20 20 20 20 20 20 21 21 21 22 22
31 31 31 30 30 29 29 28 27 26 25 25 25 25 24 24 24 24 25 24 23 22 21 21 21 21 21 22 22 22 21 20 19 19 19 19 19 20 20 20 20 20 19 19 19 19 19 19 19 20 20 20 20 20 20 21 20 20 20 19 19 19 19 20 21 21 21 21 22
30 30 30 30 30 29 28 27 26 25 25 24 24 24 24 23 22 23 24 25 23 21 21 21 21 21 21 21 21 21 21 20 20 19 19 19 20 20 20 20 20 20 20 19 19 19 19 19 19 19 20 20 20 20 20 20 20 19 19 19 19 19 19 19 20 21 21 21 21
30 30 30 30 29 29 28 28 26 25 25 25 24 24 24 23 23 23 23 24 23 23 22 21 21 21 21 21 21 22 22 21 21 20 20 20 20 21 21 21 21 20 20 20 19 19 19 19 19 19 19 19 19 19 19 19 19 19 19 19 19 19 19 19 20 20 20 20 21
29 29 29 29 29 28 28 28 27 26 25 25 25 25 25 25 24 24 24 23 24 24 23 22 22 22 22 21 21 21 22 22 21 20 20 20 20 21 21 21 21 21 20 20 20 19 19 19 19 19 19 19 19 19 19 19 19 19 19 19 19 19 19 19 20 20 20 21 21
29 29 29 28 28 28 28 27 27 26 25 25 25 25 25 25 25 25 25 25 25 24 24 23 23 22 22 21 21 21 21 21 21 20 20 20 20 20 21 21 21 21 21 20 20 20 19 19 19 19 19 19 19 19 19 19 19 19 19 19 19 19 19 20 20 20 21 21 22
27 28 28 28 28 27 27 27 27 26 26 25 25 25 25 25 25 25 25 25 25 25 24 24 23 23 22 21 21 20 20 21 20 20 20 20 20 21 21 21 21 21 21 21 20 20 20 20 20 20 20 19 19 19 20 20 20 20 20 20 20 20 20 21 21 22 22 23 23
26 27 27 27 28 28 28 27 26 26 25 25 25 25 25 25 25 25 25 24 25 25 24 23 23 22 21 21 20 20 19 19 20 20 20 20 20 21 21 21 21 21 22 22 21 21 21 21 21 20 20 20 19 20 20 20 20 20 20 20 20 21 21 22 23 24 24 25 25
26 26 27 27 27 27 27 26 25 25 25 25 25 25 24 24 24 24 23 23 23 23 23 22 22 21 21 20 20 19 19 18 18 19 20 20 20 21 21 21 21 22 22 22 23 23 23 23 22 21 21 21 21 21 21 21 21 21 21 21 21 22 23 24 24 25 25 25 25
26 26 26 26 26 26 25 25 25 24 24 24 24 24 24 24 23 23 22 22 22 21 21 21 21 20 20 19 19 19 18 18 18 18 19 19 20 20 21 21 21 21 21 22 25 27 27 27 25 24 22 22 22 22 22 22 22 22 22 23 23 24 25 25 25 25 26 27 27
25 25 25 25 25 25 24 24 24 24 24 24 24 24 23 23 23 22 22 21 21 21 20 20 19 20 20 20 19 18 18 18 18 18 18 18 19 19 20 21 21 21 21 24 26 28 28 29 28 27 25 24 24 23 23 24 24 25 25 26 27 27 27 28 28 28 27 27 28
25 25 24 24 24 23 23 23 23 24 24 24 24 23 23 23 22 22 21 21 21 20 20 19 19 21 22 20 19 18 18 18 18 18 17 18 18 18 19 20 20 21 21 25 26 28 28 29 29 29 28 26 27 27 27 26 27 29 29 30 29 29 28 28 28 27 26 26 25
25 24 24 23 22 22 22 23 23 23 23 23 23 23 23 22 22 21 21 21 20 19 19 19 19 20 20 19 18 17 17 17 18 18 18 19 19 19 19 20 20 21 24 26 27 28 28 29 29 29 29 29 29 30 30 29 29 29 29 29 28 28 27 27 26 25 25 25 24
25 24 23 22 22 22 22 22 22 22 23 23 23 22 22 22 21 21 20 20 19 19 19 19 19 19 19 18 18 18 18 18 18 19 19 19 19 19 19 19 19 21 24 27 27 28 28 29 29 30 30 30 29 29 29 29 28 28 28 27 27 27 27 26 26 25 25 25 25
24 24 23 22 22 22 22 22 22 22 22 22 22 21 21 21 21 20 19 19 18 19 19 19 19 19 18 18 18 18 18 18 19 19 19 18 18 18 19 20 20 21 24 27 27 28 28 29 29 30 30 30 30 30 30 29 29 29 28 28 28 27 27 27 27 27 26 26 26
23 23 22 22 22 22 21 21 22 21 21 21 21 21 20 20 19 19 19 19 19 20 21 21 19 19 18 19 19 18 18 18 18 18 18 18 19 19 19 19 19 21 24 27 28 28 28 29 29 30 30 30 30 30 30 30 29 29 29 28 28 28 28 28 28 28 27 27 27
22 22 22 22 21 21 21 21 21 21 20 20 20 20 20 19 19 20 20 20 20 20 20 20 19 19 19 19 19 18 18 18 18 18 18 19 19 19 19 19 19 21 24 27 27 28 28 29 30 30 30 31 30 30 30 30 30 29 29 28 28 28 27 27 27 27 27 27 27
21 21 21 21 21 21 20 20 19 19 19 19 19 19 20 20 20 20 20 20 20 20 20 19 19 19 18 18 18 18 18 18 18 19 20 20 20 20 20 20 20 22 25 27 27 28 28 29 30 30 30 31 30 30 30 29 29 29 28 28 27 27 27 27 27 27 27 27 27
21 21 21 20 20 20 20 19 19 19 19 19 19 20 20 21 21 21 21 21 21 20 20 19 19 18 18 18 17 17 17 19 19 19 18 19 19 19 19 19 20 22 25 27 27 28 29 29 30 30 30 31 30 30 29 28 28 28 27 27 27 27 27 27 27 26 27 27 27
21 21 20 20 20 20 19 19 19 19 19 19 19 20 21 21 21 21 21 22 22 21 20 19 19 18 18 17 17 17 18 18 18 17 18 18 19 19 19 19 20 22 25 27 27 28 29 30 30 30 30 30 30 29 28 27 27 27 27 27 27 27 26 26 26 26 26 26 26
21 21 20 20 20 20 19 19 19 19 19 19 19 20 21 21 21 21 21 22 22 21 20 19 19 18 18 17 17 18 18 17 17 17 17 19 20 19 19 19 19 22 25 27 28 28 29 29 30 30 30 30 29 28 27 27 26 26 26 26 26 26 26 25 25 25 25 25 26
21 21 21 20 20 19 19 19 19 19 19 19 20 20 21 21 21 21 21 21 21 20 19 19 19 18 18 18 17 17 18 17 17 17 18 20 21 20 19 19 19 21 24 27 27 28 29 29 30 30 30 28 27 27 27 26 26 26 26 26 26 26 26 25 25 25 25 25 26
21 21 21 20 20 19 19 19 19 19 19 19 20 21 21 21 21 21 21 21 20 19 19 18 18 18 18 18 18 18 18 17 18 18 18 20 20 20 20 19 20 21 24 26 27 28 29 29 30 30 29 27 26 26 26 26 26 26 26 26 26 26 26 26 26 26 26 26 28
21 21 21 21 20 20 20 19 19 19 19 20 20 21 21 21 20 20 20 21 20 19 19 18 18 18 18 19 19 18 17 17 18 18 19 19 20 21 21 21 21 21 23 26 27 28 28 29 29 30 29 28 27 26 26 26 26 26 26 26 26 27 27 27 27 27 27 27 30
20 20 20 20 20 20 20 20 19 19 20 20 20 20 20 20 20 20 21 20 20 19 18 18 18 18 19 20 20 18 17 17 17 17 18 19 21 22 23 22 21 21 23 25 26 27 28 28 29 29 29 28 27 26 27 27 27 27 27 27 27 27 27 27 27 27 28 28 30
18 19 19 19 19 19 19 19 19 19 19 19 19 19 20 20 20 20 19 19 18 18 18 17 17 18 19 20 19 18 17 17 17 17 18 19 20 21 22 21 20 20 21 23 25 27 28 28 29 29 29 28 27 27 27 27 27 27 27 27 27 27 27 27 28 28 28 28 29